This demonstration page uses our WeatherBlox Daily Observations layout. Learn more.

Left ArrowRight Arrow

Hourly Observations for February 28, 2022

Temp ( °F °C ) Dew Point ( °F °C ) Humidity (%) Winds ( mph kmh ) Pressure ( in mb ) Visibility ( mi km ) Precip ( " mm )
12:15 am 00:15 Clear 31 -0.5 1 -17.3 27 27 W 6 9 30.26 1025 10 16 0.00 0.00
12:35 am 00:35 Clear 32 0.2 3 -16.3 28 28 W 5 7 30.24 1024 10 16 0.00 0.00
12:55 am 00:55 Clear 33 0.3 4 -15.4 30 30 Calm 30.23 1024 10 16 0.00 0.00
1:15 am 01:15 Clear 32 -0.2 4 -15.8 30 30 Calm 30.24 1024 10 16 0.00 0.00
1:35 am 01:35 Clear 30 -1 3 -15.9 32 32 Calm 30.25 1025 10 16 0.00 0.00
1:55 am 01:55 Clear 29 -1.8 4 -15.8 34 34 W 5 7 30.26 1025 10 16 0.00 0.00
2:15 am 02:15 Clear 30 -1.1 5 -15 34 34 W 3 6 30.26 1025 10 16 0.00 0.00
2:35 am 02:35 Clear 28 -2.5 5 -15.2 37 37 W 7 11 30.27 1025 10 16 0.00 0.00
2:55 am 02:55 Clear 29 -1.8 7 -13.7 40 40 W 5 7 30.26 1025 10 16 0.00 0.00
3:15 am 03:15 Clear 28 -2.5 7 -13.8 42 42 WNW 7 11 30.26 1025 10 16 0.00 0.00
3:35 am 03:35 Clear 31 -0.6 12 -11.2 45 45 WNW 8 13 30.23 1024 10 16 0.00 0.00
3:55 am 03:55 Clear 28 -2 11 -11.9 47 47 WNW 8 13 30.25 1025 10 16 0.00 0.00
4:15 am 04:15 Clear 30 -1 13 -10.4 49 49 NW 7 11 30.23 1024 10 16 0.00 0.00
4:35 am 04:35 Clear 31 -0.5 14 -9.9 49 49 WNW 8 13 30.24 1024 10 16 0.00 0.00
4:55 am 04:55 Clear 30 -1 14 -10.1 50 50 WNW 6 9 30.25 1025 10 16 0.00 0.00
5:15 am 05:15 Clear 32 -0.1 15 -9.2 51 51 W 7 11 30.25 1024 10 16 0.00 0.00
5:35 am 05:35 Clear 31 -0.4 16 -9 53 53 WNW 6 9 30.26 1025 10 16 0.00 0.00
5:55 am 05:55 Clear 32 0 16 -9 51 51 WNW 7 11 30.26 1025 10 16 0.00 0.00
6:15 am 06:15 Clear 29 -1.6 15 -9.5 55 55 W 6 9 30.27 1025 10 16 0.00 0.00
6:35 am 06:35 Clear 29 -1.9 15 -9.6 56 56 W 6 9 30.27 1025 10 16 0.00 0.00
6:55 am 06:55 Clear 29 -1.7 14 -9.8 54 54 W 6 9 30.27 1025 10 16 0.00 0.00
7:15 am 07:15 Sunny 30 -1.2 16 -9.1 55 55 W 7 11 30.27 1025 10 16 0.00 0.00
7:35 am 07:35 Sunny 31 -0.3 17 -8.6 54 54 W 6 9 30.26 1025 10 16 0.00 0.00
7:55 am 07:55 Sunny 33 0.5 17 -8.5 51 51 W 7 11 30.26 1025 10 16 0.00 0.00
8:15 am 08:15 Sunny N/A N/A N/A undefined N/A N/A 10 16 0.00 0.00
8:35 am 08:35 undefined N/A N/A N/A undefined N/A N/A N/A 0.00 0.00
8:55 am 08:55 undefined N/A N/A N/A undefined N/A N/A N/A 0.00 0.00
9:15 am 09:15 undefined N/A N/A N/A undefined N/A N/A N/A 0.00 0.00
9:35 am 09:35 undefined N/A N/A N/A undefined N/A N/A N/A 0.00 0.00
9:55 am 09:55 undefined N/A N/A N/A undefined N/A N/A N/A 0.00 0.00
10:15 am 10:15 undefined N/A N/A N/A undefined N/A N/A N/A 0.00 0.00
10:35 am 10:35 undefined N/A N/A N/A undefined N/A N/A N/A 0.00 0.00
10:55 am 10:55 undefined N/A N/A N/A undefined N/A N/A N/A 0.00 0.00
11:15 am 11:15 undefined N/A N/A N/A undefined N/A N/A N/A 0.00 0.00
11:35 am 11:35 undefined N/A N/A N/A undefined N/A N/A N/A 0.00 0.00
11:55 am 11:55 undefined N/A N/A N/A undefined N/A N/A N/A 0.00 0.00
12:15 pm 12:15 undefined N/A N/A N/A undefined N/A N/A N/A 0.00 0.00
12:35 pm 12:35 undefined N/A N/A N/A undefined N/A N/A N/A 0.00 0.00
12:55 pm 12:55 undefined N/A N/A N/A undefined N/A N/A N/A 0.00 0.00
1:15 pm 13:15 undefined N/A N/A N/A undefined N/A N/A N/A 0.00 0.00
1:35 pm 13:35 undefined N/A N/A N/A undefined N/A N/A N/A 0.00 0.00
1:55 pm 13:55 undefined N/A N/A N/A undefined N/A N/A N/A 0.00 0.00
2:15 pm 14:15 undefined N/A N/A N/A undefined N/A N/A N/A 0.00 0.00
2:35 pm 14:35 undefined N/A N/A N/A undefined N/A N/A N/A 0.00 0.00
2:55 pm 14:55 undefined N/A N/A N/A undefined N/A N/A N/A 0.00 0.00
3:15 pm 15:15 undefined N/A N/A N/A undefined N/A N/A N/A 0.00 0.00
3:35 pm 15:35 undefined N/A N/A N/A undefined N/A N/A N/A 0.00 0.00
3:55 pm 15:55 undefined N/A N/A N/A undefined N/A N/A N/A 0.00 0.00
4:15 pm 16:15 undefined N/A N/A N/A undefined N/A N/A N/A 0.00 0.00
4:35 pm 16:35 undefined N/A N/A N/A undefined N/A N/A N/A 0.00 0.00
4:55 pm 16:55 undefined N/A N/A N/A undefined N/A N/A N/A 0.00 0.00
5:15 pm 17:15 undefined N/A N/A N/A undefined N/A N/A N/A 0.00 0.00
5:35 pm 17:35 undefined N/A N/A N/A undefined N/A N/A N/A 0.00 0.00
5:55 pm 17:55 undefined N/A N/A N/A undefined N/A N/A N/A 0.00 0.00
6:15 pm 18:15 undefined N/A N/A N/A undefined N/A N/A N/A 0.00 0.00
6:35 pm 18:35 undefined N/A N/A N/A undefined N/A N/A N/A 0.00 0.00
6:55 pm 18:55 undefined N/A N/A N/A undefined N/A N/A N/A 0.00 0.00
7:15 pm 19:15 undefined N/A N/A N/A undefined N/A N/A N/A 0.00 0.00
7:35 pm 19:35 undefined N/A N/A N/A undefined N/A N/A N/A 0.00 0.00
7:55 pm 19:55 undefined N/A N/A N/A undefined N/A N/A N/A 0.00 0.00
8:15 pm 20:15 undefined N/A N/A N/A undefined N/A N/A N/A 0.00 0.00
8:35 pm 20:35 undefined N/A N/A N/A undefined N/A N/A N/A 0.00 0.00
8:55 pm 20:55 undefined N/A N/A N/A undefined N/A N/A N/A 0.00 0.00
9:15 pm 21:15 undefined N/A N/A N/A undefined N/A N/A N/A 0.00 0.00
9:35 pm 21:35 undefined N/A N/A N/A undefined N/A N/A N/A 0.00 0.00
9:55 pm 21:55 undefined N/A N/A N/A undefined N/A N/A N/A 0.00 0.00
10:15 pm 22:15 undefined N/A N/A N/A undefined N/A N/A N/A 0.00 0.00
10:35 pm 22:35 undefined N/A N/A N/A undefined N/A N/A N/A 0.00 0.00
10:55 pm 22:55 undefined N/A N/A N/A undefined N/A N/A N/A 0.00 0.00
11:15 pm 23:15 undefined N/A N/A N/A undefined N/A N/A N/A 0.00 0.00
11:35 pm 23:35 undefined N/A N/A N/A undefined N/A N/A N/A 0.00 0.00
11:55 pm 23:55 undefined N/A N/A N/A undefined N/A N/A N/A 0.00 0.00

Powered by AerisWeather